Weather in Olaine

Latvia     56°47′14″N   23°56′31″E
temp.,
°C
wind,
m/s
gust,
m/s
humid.,
%
clouds,
%
prec.,
mm/h
press.,
hPa
HPBL,
m
17 may, mon
mon1700:00+13se2793100 0.3 1006184
03:00+12se41494100 1.2 1005580
06:00+13se3997100 2.1 1004371
09:00+13sse3698100 4.4 1005373
12:00+12sw3696100 6.1 1006382
15:00+12se1295100 6.9 1006143
18:00+16e1172100 0.0 1006519
21:00+13ene2489100 0.0 100577
18 may, tue
tue1800:00+10nne2497100 0.0 100574
03:00+9nne2397100 0.0 100568
06:00+9n2697100 0.0 1005151
09:00+12n3683100 0.0 1005337
12:00+14n4670100 0.0 1005563
15:00+15n4665100 0.0 1005543
18:00+15n4660100 0.0 1005506
21:00+10nnw31081100 0.0 1005274
19 may, wed
wed1900:00+8nnw3786100 0.0 1005175
03:00+8nw2695100 0.3 1005137
06:00+8nw279599 0.0 1005179
09:00+12nnw3676100 0.0 1006449
12:00+16nnw45587 0.0 10061036
15:00+17nnw4654100 0.0 10071247
18:00+16n4656100 0.0 1008785
21:00+10nnw227995 0.0 100946
20 may, thu
thu2000:00+9wnw2591100 0.0 1010127
03:00+7nw2497100 0.0 1010111
06:00+8nw2892100 0.0 1011238
09:00+12nnw4975100 0.0 1010504
12:00+13nnw51066100 0.0 1010805
15:00+13nnw51168100 0.0 1010878
18:00+12nnw51269100 0.1 1008863
21:00+11nw61372100 0.1 1007850
21 may, fri
fri2100:00+10nw61460100 0.0 1006840
03:00+9nw51461100 0.0 1004820
06:00+9wnw51366100 0.0 1004734
09:00+11wnw61167100 0.0 1004892
12:00+15wnw6105199 0.0 10041800
15:00+14w5853100 0.0 10061855
18:00+15w564763 0.0 10071999
21:00+10wsw596839 0.0 1008769